This demonstration page uses our WeatherBlox Daily Observations layout. Learn more.

Left ArrowRight Arrow

Hourly Observations for September 4, 2021

Temp ( °F °C ) Dew Point ( °F °C ) Humidity (%) Winds ( mph kmh ) Pressure ( in mb ) Visibility ( mi km ) Precip ( " mm )
12:53 am 00:53 Clear 74 23.3 69 20.6 85 85 NE 3 6 29.85 1011 10 16 0.00 0.00
1:53 am 01:53 Clear 74 23.3 69 20.6 85 85 ENE 6 9 29.83 1010 10 16 0.00 0.00
2:53 am 02:53 Clear 75 23.9 64 17.8 69 69 SE 9 15 29.82 1010 10 16 0.00 0.00
3:53 am 03:53 Clear 75 23.9 63 17.2 66 66 SSE 9 15 29.80 1009 10 16 0.00 0.00
4:53 am 04:53 Clear 74 23.3 62 16.7 67 67 SE 10 17 29.80 1009 10 16 0.00 0.00
5:53 am 05:53 Clear 74 23.3 63 17.2 69 69 SE 13 20 29.80 1009 10 16 0.00 0.00
6:53 am 06:53 Clear 73 22.8 63 17.2 71 71 SE 10 17 29.82 1010 10 16 0.00 0.00
7:53 am 07:53 Sunny 72 22.2 63 17.2 73 73 SE 12 19 29.84 1011 10 16 0.00 0.00
8:53 am 08:53 Sunny 75 23.9 64 17.8 69 69 SE 12 19 29.86 1011 10 16 0.00 0.00
9:53 am 09:53 Sunny 80 26.7 65 18.3 60 60 SSE 12 19 29.87 1011 10 16 0.00 0.00
10:53 am 10:53 Sunny 84 28.9 65 18.3 53 53 SSE 9 15 29.88 1012 10 16 0.00 0.00
11:53 am 11:53 Sunny 88 31.1 64 17.8 45 45 Calm 29.88 1012 10 16 0.00 0.00
12:53 pm 12:53 Sunny 91 32.8 63 17.2 39 39 VRB 3 6 29.86 1011 10 16 0.00 0.00
1:53 pm 13:53 Sunny 92 33.3 61 16.1 36 36 VRB 5 7 29.84 1010 10 16 0.00 0.00
2:53 pm 14:53 Sunny 95 35 61 16.1 32 32 ENE 6 9 29.80 1009 10 16 0.00 0.00
3:53 pm 15:53 Mostly Sunny 96 35.6 57 13.9 27 27 Calm 29.77 1008 10 16 0.00 0.00
4:53 pm 16:53 Mostly Sunny 96 35.6 55 12.8 25 25 E 5 7 29.75 1008 10 16 0.00 0.00
5:53 pm 17:53 Mostly Sunny 96 35.6 54 12.2 24 24 W 6 9 29.75 1007 10 16 0.00 0.00
6:53 pm 18:53 Sunny 95 35 53 11.7 24 24 SSW 6 9 29.75 1008 10 16 0.00 0.00
7:53 pm 19:53 Mostly Sunny 94 34.4 55 12.8 27 27 WNW 6 9 29.78 1008 10 16 0.00 0.00
8:16 pm 20:16 Mostly Cloudy 87 30.6 61 16.1 42 42 N 18 30 29.73 1007 10 16 0.00 0.00
8:53 pm 20:53 Partly Cloudy with Light Rain 80 26.7 66 18.9 62 62 N 21 33 29.83 1010 10 16 0.01 0.25
9:53 pm 21:53 Cloudy 77 25 66 18.9 69 69 N 23 37 29.88 1012 10 16 0.00 0.00
10:07 pm 22:07 Cloudy with Nearby Thunderstorms 76 24.4 65 18.3 69 69 N 22 35 29.87 1011 10 16 0.00 0.00
10:22 pm 22:22 Mostly Cloudy 76 24.4 65 18.3 69 69 N 21 33 29.87 1011 10 16 0.00 0.00
10:53 pm 22:53 Clear 77 25 65 18.3 66 66 N 20 31 29.88 1012 10 16 0.00 0.00
11:53 pm 23:53 Cloudy 76 24.4 64 17.8 67 67 NE 10 17 29.88 1012 10 16 0.00 0.00

Powered by AerisWeather